Location: Unspecified
(51.0950°N, 12.9690°E)
Time: 00:38:56
(UTC+00:00)

METEOR M2 - Pass Details

Date: 18 April 2024
Orbit: 817 x 827 km, 98.4° (Epoch: 23 May)

Event Time Altitude Azimuth Distance (km) Brightness Sun altitude
Rises 03:05:06 0° 31° (NNE) 3,365 ? -9.5°
Reaches altitude 10° 03:09:19 10° 63° (ENE) 2,423 ? -9.0°
Maximum altitude 03:11:10 12° 83° (E) 2,298 ? -8.7°
Drops below altitude 10° 03:13:01 10° 104° (ESE) 2,415 ? -8.5°
Sets 03:17:10 0° 136° (SE) 3,338 ? -7.9°
